Temp
11 11 11 11 10 11 11 11 11 12 11 12 12 13 13 13 13 13 13 13 13 13 13 13 14 14 14 14 14 13 13 13 14 13 13 12 13 13 12 12 12 11 10 10 11 11 11 11 10 9 9 9
10 10 10 10 10 10 10 10 11 11 11 11 11 11 12 12 12 13 13 13 13 13 13 13 13 13 13 13 13 13 13 13 13 13 13 12 12 12 12 12 12 11 10 9 10 11 11 11 11 10 10 9
10 10 10 10 10 9 9 10 10 10 11 11 11 11 11 11 12 12 12 13 13 13 13 13 13 13 13 13 13 13 13 13 13 13 13 12 12 12 12 12 12 11 10 9 10 10 11 11 11 11 10 9
9 9 10 10 10 9 9 9 9 10 10 10 11 11 11 11 11 11 12 12 13 13 13 13 13 13 13 13 13 13 13 13 13 13 13 12 12 12 12 12 12 11 10 10 10 10 10 11 11 11 10 9
8 8 8 9 9 9 9 9 9 9 9 10 10 10 10 11 11 11 11 11 12 12 13 13 13 13 13 13 13 13 13 13 12 13 13 13 12 12 11 12 11 11 10 10 10 10 10 11 11 11 10 10
7 7 7 7 8 8 8 9 9 9 9 9 9 9 9 10 10 10 10 10 11 11 11 12 12 12 13 13 13 13 13 12 12 13 13 12 12 12 11 11 11 11 10 10 10 10 10 10 10 10 10 10
6 6 6 6 7 7 7 8 8 8 9 9 9 9 8 8 9 9 10 10 10 10 10 11 11 12 12 12 12 13 13 12 12 12 13 12 12 12 11 11 11 11 10 9 9 10 10 10 10 10 10 10
6 6 6 6 6 6 6 7 7 7 8 8 9 9 9 8 8 8 9 9 9 10 10 10 10 10 11 12 12 13 13 12 12 12 12 12 12 12 11 11 11 10 10 9 9 10 10 10 10 10 10 9
6 5 6 6 6 6 6 6 6 7 7 7 8 8 8 8 8 8 8 9 9 9 9 9 9 9 10 11 11 12 13 13 13 13 12 12 12 12 11 11 11 10 10 9 8 9 10 10 10 9 9 9
5 5 5 5 5 6 6 6 6 6 6 6 7 7 8 7 7 8 7 8 8 8 8 8 9 9 9 10 10 11 12 13 13 13 12 12 12 12 12 11 11 10 10 10 9 9 10 10 9 9 9 9
5 5 5 5 5 5 5 5 5 5 6 6 6 7 7 7 6 6 6 7 7 8 8 8 8 8 9 9 9 10 11 12 13 13 12 12 12 12 12 11 11 10 10 10 9 9 9 9 9 9 9 9
5 5 5 5 5 5 5 5 5 5 5 5 6 6 6 7 6 6 5 6 6 7 7 7 7 7 8 8 9 9 9 10 11 13 12 12 12 12 12 11 11 10 10 10 10 9 9 9 9 9 9 9
5 5 5 5 5 5 5 5 5 5 5 5 5 5 6 6 7 6 5 5 5 5 6 6 7 7 7 8 8 8 9 9 9 11 12 12 12 12 12 11 11 10 10 10 10 9 9 9 9 9 9 9
5 5 5 5 4 4 5 5 5 5 5 5 5 5 5 5 6 6 5 4 4 5 5 6 6 6 6 7 7 7 8 8 8 9 10 12 12 12 12 11 11 10 10 10 9 9 9 9 9 9 9 9
4 4 4 4 4 4 4 4 4 4 4 4 4 4 5 5 5 5 5 5 4 4 4 5 5 6 6 6 6 6 7 8 8 8 8 9 11 12 12 11 11 10 10 9 9 9 9 9 9 9 9 8
4 4 4 4 3 4 4 4 4 4 4 4 4 4 4 4 4 5 5 4 4 4 4 4 4 5 5 5 5 5 6 6 7 7 8 8 8 9 11 12 11 10 10 10 9 9 9 8 8 8 8 8
3 3 3 3 3 3 3 3 4 4 4 4 4 4 4 4 4 4 4 4 4 4 4 4 4 4 4 5 5 5 5 5 6 6 7 8 8 8 8 10 11 10 9 9 9 9 8 8 8 8 8 8
3 3 3 3 3 3 3 3 3 3 3 4 4 4 4 4 4 4 4 4 4 4 4 3 3 4 4 4 4 5 5 5 5 5 6 7 7 8 7 7 9 10 10 9 9 8 8 8 8 8 8 8
2 3 2 2 2 2 2 3 3 3 3 3 3 3 3 3 4 3 3 3 3 3 3 3 3 3 3 3 4 4 4 4 4 4 5 6 6 7 7 6 7 8 9 9 8 8 8 8 8 8 8 8
2 2 2 2 2 2 2 2 2 2 2 2 2 2 3 3 3 3 3 3 3 3 3 3 3 3 3 3 3 3 4 4 4 4 4 4 5 6 6 7 6 6 7 8 9 8 8 8 8 7 8 8
2 2 2 2 2 2 2 2 2 1 1 2 2 2 2 2 3 3 3 3 3 3 3 3 3 3 3 3 3 3 3 3 3 3 3 3 4 4 5 6 6 6 5 6 8 8 8 8 7 7 8 8
2 2 1 1 1 1 1 1 1 1 1 1 1 1 2 2 2 2 3 3 3 3 3 3 3 2 2 2 2 2 2 3 3 3 3 3 3 4 4 5 5 6 6 5 5 6 7 7 7 7 7 8
1 1 1 1 1 1 1 1 1 1 1 1 1 1 1 1 2 2 2 2 2 3 3 3 3 2 2 2 2 2 2 2 2 3 2 2 2 3 3 4 4 5 6 6 5 4 5 6 6 7 7 7
1 1 1 0 0 0 0 0 0 0 1 1 1 1 1 1 1 1 2 2 2 2 2 2 2 2 2 2 2 2 2 2 2 2 2 2 2 2 2 3 3 4 5 5 4 4 4 4 4 4 5 5
0 0 -0 -0 -1 -0 -0 -0 -0 -0 -0 0 0 0 0 1 1 1 1 1 2 2 2 2 2 2 2 2 2 2 2 2 2 2 2 2 2 1 1 2 3 3 4 3 3 3 3 2 3 3 3 4
0 -0 -0 -1 -1 -1 -1 -1 -1 -1 -1 -1 -1 -0 -0 0 0 1 1 1 1 1 1 1 2 2 2 2 2 2 2 2 2 2 2 2 2 1 1 1 2 3 3 3 3 3 2 1 1 1 2 2
-0 -0 -0 -1 -1 -1 -1 -1 -1 -1 -1 -1 -1 -1 -1 -0 -0 -0 0 0 0 0 0 1 1 1 1 1 1 2 2 2 2 2 2 2 2 1 1 1 1 2 2 3 3 3 3 3 2 2 1 1
-0 -0 -1 -1 -1 -1 -1 -1 -1 -2 -2 -2 -1 -1 -1 -1 -1 -1 -1 -0 -0 -0 -0 0 0 1 1 1 1 1 1 2 1 1 2 2 1 1 1 0 1 1 2 2 3 3 3 2 3 4 3 1
-1 -1 -1 -1 -1 -1 -2 -2 -2 -2 -2 -2 -2 -2 -1 -1 -1 -1 -1 -1 -1 -1 -0 -0 0 0 0 0 0 1 1 1 1 1 1 1 1 1 1 0 0 1 1 1 2 3 3 2 3 4 4 3
-3 -3 -3 -3 -2 -2 -2 -2 -3 -2 -3 -2 -2 -2 -2 -2 -2 -2 -2 -1 -1 -1 -1 -0 -0 -0 -0 -0 -0 -0 0 0 1 1 1 1 1 1 1 1 0 0 0 1 1 2 3 3 3 3 3 4
-4 -4 -4 -4 -4 -4 -3 -3 -3 -3 -3 -3 -2 -2 -2 -2 -2 -2 -2 -2 -2 -2 -1 -1 -1 -1 -1 -1 -1 -1 -1 -0 -0 0 1 1 1 1 1 1 -0 -0 0 0 0 1 1 2 2 2 2 3
Height
810 810 809 808 807 807 807 808 808 808 808 808 808 808 808 809 809 810 810 810 810 811 812 812 813 813 814 815 816 818 818 818 818 818 819 819 820 821 821 821 822 823 823 823 825 826 827 828 829 831 833 834
811 811 810 809 808 808 808 808 808 807 808 807 807 807 807 807 808 809 809 809 809 810 811 811 812 813 813 814 815 816 817 818 818 818 819 819 819 820 820 821 821 822 822 822 824 825 826 828 829 830 832 833
812 811 811 810 810 810 809 808 808 807 807 807 806 807 806 806 807 807 808 808 809 809 809 810 811 811 812 813 813 815 816 817 817 817 818 818 818 819 820 820 821 821 821 822 824 825 826 828 828 829 831 832
813 812 812 811 812 811 810 809 808 808 807 807 806 806 805 805 805 806 806 807 807 808 808 808 809 810 810 811 812 813 814 815 816 816 817 818 818 818 819 819 820 820 820 821 823 825 826 827 828 829 831 832
815 814 813 813 813 812 812 811 810 809 807 806 806 806 805 805 805 805 805 805 806 806 807 807 808 809 809 809 810 811 812 813 814 814 815 816 817 817 817 819 819 819 819 819 821 824 825 827 827 828 830 832
817 816 815 814 814 813 813 812 811 810 809 808 807 807 806 805 805 805 805 805 805 805 806 806 807 807 808 808 808 809 810 812 812 813 813 814 816 816 816 818 818 819 818 817 818 821 824 826 827 828 829 831
818 817 816 816 815 814 813 812 811 810 810 809 809 809 808 807 806 805 805 805 804 804 805 805 806 806 806 807 807 807 808 810 810 812 812 813 814 815 815 817 817 817 817 817 816 818 821 824 825 826 828 830
819 818 817 817 815 814 813 812 812 811 811 810 810 810 809 808 807 806 805 804 804 804 804 804 804 805 805 805 806 805 806 807 808 809 810 811 812 813 813 814 816 816 815 815 815 816 818 821 823 824 826 828
820 820 818 817 816 815 814 813 812 812 812 811 811 810 809 809 808 807 806 805 804 804 804 803 803 804 804 803 804 804 804 805 806 807 808 810 810 811 811 812 814 815 814 814 814 816 817 818 821 823 824 826
822 821 819 818 817 816 815 813 812 811 811 811 811 810 809 809 808 807 807 806 805 804 804 803 803 803 803 802 802 803 803 802 804 805 806 807 808 809 809 811 812 813 813 812 813 816 817 817 819 821 822 824
822 821 821 820 819 817 816 814 813 811 810 810 810 810 809 808 808 807 807 807 806 805 804 803 803 802 802 802 802 802 802 801 801 802 804 805 806 807 807 809 810 810 811 811 812 814 816 817 818 819 820 822
821 821 820 820 819 818 817 815 814 813 811 810 809 809 808 808 807 807 807 807 807 806 804 803 802 801 801 800 801 801 801 800 799 799 801 802 803 804 805 806 807 808 808 809 810 811 813 815 816 818 819 820
821 820 820 819 818 817 816 815 814 813 812 810 809 808 808 807 807 806 806 806 806 805 804 803 802 801 799 799 799 799 800 800 799 797 797 798 799 801 801 803 804 806 806 806 807 808 810 812 814 816 817 819
821 820 819 818 817 816 815 815 814 813 811 810 809 807 806 806 806 806 805 805 805 804 803 803 801 800 799 798 797 797 797 797 798 797 795 795 795 797 798 799 801 802 803 804 804 806 807 809 811 813 815 816
821 820 819 818 817 816 815 814 812 811 810 809 808 806 805 805 805 805 805 804 803 803 802 801 801 799 798 797 796 796 795 794 795 795 795 794 793 793 793 795 797 798 799 800 802 803 804 806 808 811 813 814
821 819 818 817 816 815 814 813 811 810 808 807 806 805 804 803 803 803 803 803 802 801 800 800 799 798 797 796 795 794 793 792 792 792 793 793 793 791 790 790 792 794 796 797 798 800 801 803 805 807 810 811
821 819 818 817 816 814 813 811 809 808 807 805 804 803 802 801 801 801 801 800 800 800 799 798 797 796 795 794 794 793 792 791 790 790 789 790 791 791 790 788 788 791 792 793 794 796 798 799 801 804 806 808
820 819 817 816 815 813 812 810 808 807 805 804 803 801 800 800 799 800 799 798 798 798 797 796 796 795 794 793 792 791 791 790 788 788 787 787 788 788 789 788 786 786 787 790 791 793 794 796 798 801 803 805
818 817 816 814 813 812 811 809 807 805 804 803 801 800 798 798 798 798 798 797 796 795 795 794 794 793 792 791 790 789 788 788 787 786 785 785 785 785 786 787 786 784 783 785 787 789 791 793 795 797 799 801
817 815 814 813 812 811 810 808 806 804 802 801 799 798 796 796 796 796 796 796 795 793 793 792 791 791 790 789 788 787 786 786 785 784 784 783 783 782 782 783 784 783 782 782 783 785 788 789 791 793 795 798
815 813 812 811 810 809 808 807 805 803 801 799 797 796 795 794 794 794 794 794 793 792 791 790 789 789 788 788 787 786 785 784 783 783 782 781 781 780 779 779 780 781 782 781 781 781 783 785 787 789 791 793
813 811 810 809 809 808 807 806 804 802 800 798 796 795 794 793 793 792 792 792 791 790 788 788 787 786 786 786 785 784 783 783 782 782 781 779 779 778 778 777 777 777 778 780 780 780 779 781 783 784 787 790
813 810 809 808 807 806 806 805 803 801 798 796 794 793 792 792 791 790 790 789 788 787 786 785 785 784 784 784 783 782 781 781 780 780 779 778 777 776 776 775 775 775 775 776 778 778 778 778 779 781 784 786
811 809 807 806 805 805 804 803 801 799 796 794 792 791 790 790 789 788 787 787 786 785 784 783 782 782 782 781 781 780 779 779 778 778 777 776 776 775 774 773 773 774 774 774 774 776 777 777 778 780 781 783
810 807 805 804 803 802 801 800 798 796 794 792 790 789 788 787 787 786 785 784 783 782 781 781 780 779 779 779 779 778 777 776 776 776 775 774 774 773 772 771 770 771 773 774 773 774 775 776 776 777 779 781
808 806 804 802 801 800 798 797 795 793 791 790 788 787 785 784 784 783 782 781 780 780 779 778 777 777 776 776 776 775 775 774 774 773 773 772 771 771 770 769 768 769 771 771 771 771 772 773 775 776 777 778
806 804 802 800 798 797 795 794 792 790 789 787 786 785 783 782 781 781 779 778 778 777 776 776 775 774 774 773 773 773 772 772 771 771 771 771 769 768 768 767 766 767 768 767 768 769 769 770 771 773 774 774
804 802 800 798 796 794 792 790 789 788 786 785 783 782 781 780 779 778 777 776 775 774 773 773 772 772 771 770 770 770 769 768 769 769 768 768 768 767 766 764 763 764 765 765 765 767 767 768 768 766 766 768
803 801 798 796 793 791 789 787 786 784 783 782 780 779 778 777 776 775 774 773 773 772 771 770 770 769 768 768 767 767 767 766 766 766 766 766 765 765 764 763 761 762 762 762 762 762 763 765 764 759 759 762
803 801 798 795 791 789 786 784 783 781 780 779 777 776 775 774 773 772 771 770 770 769 768 768 767 767 766 765 765 764 764 763 763 763 763 763 763 762 762 761 760 759 760 760 760 759 759 759 759 757 758 760
803 800 797 794 791 788 785 782 781 779 778 776 774 773 771 770 770 769 768 767 767 766 765 765 764 764 763 762 762 762 761 761 760 760 760 760 760 759 759 759 758 757 758 758 758 757 757 757 757 757 758 758
Wind_Speed
25 24 22 19 16 12 8 6 8 9 11 10 10 12 14 14 13 13 15 16 17 17 16 16 16 16 15 15 15 16 16 17 19 17 17 18 18 17 17 18 18 18 18 16 15 9 7 11 16 20 20 21
27 27 26 24 21 19 15 11 11 11 11 11 10 10 11 13 14 15 16 16 17 18 19 17 17 17 16 16 15 16 17 17 19 18 17 17 18 19 18 18 18 19 20 18 17 13 9 9 12 18 20 22
31 30 29 28 25 24 22 19 17 14 13 12 12 13 11 11 13 16 18 17 16 17 19 19 18 18 17 17 16 16 17 18 19 20 18 17 19 20 19 20 19 19 22 21 19 17 12 10 10 13 15 21
35 34 32 31 30 29 27 24 23 20 18 15 14 16 15 13 13 14 15 16 17 17 17 18 19 20 19 19 18 16 17 18 19 21 20 17 18 21 21 20 19 19 22 22 20 18 15 13 13 11 9 15
36 36 35 34 34 33 32 30 29 27 25 22 19 19 18 16 15 14 14 15 16 18 19 20 20 21 22 21 20 18 18 19 19 20 22 19 18 22 22 19 19 19 23 24 21 20 19 17 15 13 10 10
36 36 36 35 35 34 34 33 33 32 31 28 25 24 22 21 19 18 17 15 15 17 19 21 22 22 23 23 22 20 19 20 19 19 22 20 18 21 21 20 20 20 25 26 22 22 22 20 17 15 14 11
36 36 36 35 34 34 34 34 34 33 33 32 30 28 26 26 24 21 19 18 16 16 17 20 22 24 25 26 25 22 20 21 20 19 22 21 19 20 21 22 21 21 27 27 24 25 24 22 20 17 16 15
33 34 36 35 33 33 33 33 33 32 32 32 31 31 29 28 27 25 22 21 19 17 17 18 21 24 26 27 27 26 23 22 22 21 23 24 21 20 21 24 22 22 29 29 28 28 25 24 22 20 19 17
30 31 34 36 34 32 31 32 32 30 30 31 30 30 30 29 28 26 25 23 22 20 19 17 19 22 25 27 27 28 26 25 25 25 26 25 23 21 19 23 24 23 29 32 30 28 26 26 24 22 21 19
28 29 31 34 35 32 30 30 31 31 31 30 29 29 29 30 29 27 25 23 23 22 21 19 19 19 22 26 27 28 29 29 28 27 29 27 25 23 20 21 25 26 29 32 32 29 27 27 26 24 22 21
27 28 28 30 32 32 29 28 29 30 31 30 29 28 29 29 29 29 27 24 22 21 22 21 21 19 18 22 26 28 28 31 32 31 31 30 27 26 23 21 25 28 31 33 33 31 29 28 27 26 24 23
26 27 27 28 30 30 28 26 26 27 28 29 28 27 27 28 28 29 28 26 23 21 20 21 22 21 19 19 21 25 26 28 32 34 34 32 30 30 27 23 25 30 33 34 34 33 31 30 29 27 26 24
25 26 26 27 29 29 27 25 24 25 26 27 27 26 25 26 27 28 29 28 26 24 21 19 20 21 21 20 20 21 23 26 28 32 36 37 34 33 32 27 26 30 35 36 36 35 33 32 31 30 28 26
25 25 25 26 28 28 26 24 23 23 24 25 25 25 24 24 25 27 28 28 28 26 24 21 20 20 21 21 21 21 22 23 26 29 32 37 39 37 35 33 29 31 35 38 37 36 35 34 32 32 31 28
25 24 25 26 27 27 26 24 23 23 24 24 23 23 22 23 23 24 26 27 28 27 26 24 22 20 20 21 21 21 22 22 23 28 29 32 37 40 40 38 34 33 36 39 39 38 36 35 34 33 32 30
25 25 25 25 26 26 25 24 24 25 25 25 23 23 22 23 23 23 24 25 26 27 26 26 25 23 21 20 20 20 21 22 22 24 29 31 32 35 39 41 39 36 37 39 40 40 39 37 36 35 33 31
25 24 24 24 24 25 25 24 25 26 26 26 25 24 23 24 24 22 23 23 24 25 25 25 25 24 23 22 21 21 21 22 22 22 26 31 33 32 33 38 41 38 37 39 41 41 41 40 38 36 35 33
24 24 24 24 25 25 25 24 25 25 26 26 26 25 24 24 24 22 21 22 22 22 23 24 24 24 24 24 24 23 22 23 23 22 23 28 34 35 31 33 39 41 40 40 41 42 42 42 40 38 36 35
23 24 25 26 27 27 27 26 25 25 24 25 26 26 27 26 26 23 21 20 21 21 22 23 23 24 24 24 25 25 24 24 24 23 22 24 31 37 34 32 34 38 42 43 42 43 43 42 41 40 38 36
22 22 23 25 27 28 28 26 25 23 23 24 24 25 26 27 27 25 22 21 21 21 22 22 22 23 24 24 24 25 25 24 24 24 23 23 26 32 35 35 35 36 40 43 45 44 43 44 43 41 40 38
20 20 22 23 25 26 26 25 24 24 25 25 25 25 24 24 25 25 24 23 23 22 22 22 22 23 23 24 23 23 23 23 22 22 23 23 22 25 32 35 36 36 36 39 43 45 45 44 44 44 42 40
20 19 20 21 22 23 23 23 23 25 27 28 28 27 26 24 24 24 24 24 25 24 23 23 23 23 23 23 23 22 21 22 22 21 21 22 21 20 25 32 35 37 38 37 37 40 45 46 45 45 44 43
19 18 19 19 19 20 21 22 24 26 28 30 30 30 28 26 24 24 24 23 24 25 25 23 23 23 23 23 22 21 21 21 21 21 20 21 21 20 20 25 32 36 40 40 37 36 39 42 44 45 44 43
20 18 18 17 18 20 22 24 26 27 28 30 30 31 30 28 25 24 23 23 23 25 26 24 23 23 24 24 22 21 21 21 21 21 21 21 20 20 20 20 25 30 34 36 36 34 33 34 37 39 40 41
21 19 17 17 19 21 23 25 26 27 27 28 28 30 29 28 27 24 22 22 22 24 25 25 24 24 24 25 23 22 22 21 21 21 22 22 21 18 18 20 20 23 27 25 22 21 23 27 30 31 33 37
22 19 18 19 22 23 24 25 25 26 26 25 25 26 26 26 25 23 21 20 21 22 24 25 25 24 24 25 25 24 23 22 21 20 21 21 21 19 17 18 19 18 20 18 16 14 12 14 19 22 26 32
26 22 22 23 25 24 25 25 25 26 26 25 25 23 22 22 22 22 21 20 20 22 23 25 26 25 24 25 26 26 24 23 21 19 20 20 21 20 17 17 18 17 17 19 19 15 9 6 8 12 17 25
30 25 26 28 27 25 25 26 26 26 26 27 26 23 21 21 23 24 23 22 22 24 24 24 26 26 25 25 26 27 26 25 22 20 19 19 19 19 17 16 16 16 16 21 20 10 2 1 4 7 11 17
34 30 31 31 28 25 25 25 25 25 25 26 26 25 23 22 23 23 23 23 23 23 22 23 24 25 24 24 25 27 28 27 25 22 19 18 20 20 18 16 17 17 16 20 24 15 4 1 3 6 7 10
35 34 33 31 28 25 23 22 23 24 25 27 27 25 22 20 21 20 21 23 23 23 22 22 23 23 23 23 24 25 27 28 27 24 21 20 21 21 20 18 16 17 17 18 24 24 17 8 2 2 4 5
35 34 32 31 29 28 24 21 22 26 28 29 27 23 21 21 21 20 21 22 21 22 21 20 21 22 22 23 24 24 25 26 27 27 26 23 22 21 21 19 16 16 17 16 19 24 27 21 11 4 4 4
Wind_Direction
43 38 29 21 20 16 352 329 315 318 318 309 297 287 286 292 294 287 272 263 260 255 250 239 234 229 224 228 233 242 244 248 253 247 238 230 227 220 215 207 198 197 189 188 202 207 199 190 193 200 199 193
44 42 38 33 29 26 22 11 351 336 330 329 329 314 296 292 291 294 288 273 267 260 253 243 239 237 231 229 228 235 241 248 252 251 241 233 233 224 219 213 204 205 194 187 205 206 193 196 197 199 201 200
41 40 39 37 33 28 25 22 13 358 348 337 332 329 315 300 291 293 294 283 273 265 258 248 243 240 235 233 229 229 236 244 247 251 246 236 239 228 219 218 209 204 194 189 205 208 195 193 193 195 200 203
37 37 36 37 35 31 26 22 18 10 3 354 344 342 334 321 307 300 299 292 282 271 262 251 245 241 236 232 231 230 232 239 245 252 252 243 243 230 221 224 213 201 194 190 202 210 197 189 188 188 193 201
32 32 31 31 30 29 27 25 22 18 13 5 358 354 350 342 331 322 312 300 294 285 273 255 245 244 241 233 229 231 231 233 240 248 253 250 246 237 228 226 220 208 199 193 200 209 200 194 193 193 195 195
27 26 25 24 23 23 23 23 22 21 19 15 7 358 354 352 348 343 334 318 305 299 290 271 254 246 245 240 228 228 232 232 233 241 252 254 247 243 235 226 225 213 200 195 197 206 205 202 202 201 205 204
21 21 20 18 18 18 19 19 19 19 18 16 12 5 359 355 351 348 346 338 324 309 299 287 270 253 247 245 234 227 230 230 231 235 247 253 251 247 239 229 228 217 201 194 195 205 210 207 208 210 211 213
13 14 15 15 14 13 13 15 16 16 14 12 9 5 3 360 354 348 343 343 340 327 310 298 284 266 252 246 237 231 229 227 227 230 237 247 252 249 243 234 232 222 203 196 198 204 211 211 212 215 216 218
6 6 7 9 11 8 8 9 9 11 11 10 7 1 359 357 355 351 345 340 340 341 332 315 299 281 262 249 239 234 230 226 226 229 232 240 248 248 247 237 231 223 205 199 202 205 210 214 215 218 220 221
2 1 1 2 4 4 2 1 1 3 4 5 4 360 355 353 353 352 350 344 337 337 338 331 321 305 280 265 255 242 233 230 230 230 231 235 243 245 247 241 232 224 213 208 208 208 211 214 218 219 221 223
1 359 358 357 358 359 357 355 354 355 357 358 359 358 353 350 350 350 350 348 342 335 332 333 331 324 305 285 272 259 245 237 235 233 231 231 236 241 244 241 232 224 219 217 215 212 212 214 218 220 223 224
360 357 355 352 351 354 352 348 346 347 349 350 351 353 351 347 345 346 347 346 344 339 332 329 328 325 319 306 290 278 263 251 243 234 231 230 231 235 239 238 231 223 219 220 219 216 214 215 219 221 223 225
357 354 351 348 345 347 347 342 339 337 339 343 344 345 345 344 340 338 340 341 340 338 334 328 325 324 321 313 307 301 281 266 255 240 230 228 228 231 234 235 230 223 218 218 219 218 217 217 219 221 223 224
353 350 347 343 340 340 339 337 333 330 330 333 336 336 336 337 335 331 330 333 333 333 332 328 324 322 323 316 311 315 303 281 268 256 240 228 226 228 231 232 229 224 220 218 218 218 218 219 219 221 222 223
348 345 342 339 336 334 333 331 328 325 324 325 328 328 327 327 329 325 321 322 325 328 328 326 324 321 320 321 317 317 314 302 285 272 258 240 230 227 228 229 229 225 221 219 219 218 218 219 219 219 221 221
342 340 338 336 334 332 330 328 326 324 322 322 322 321 320 319 322 320 314 315 318 321 324 323 322 320 317 319 321 320 315 310 302 286 270 256 242 231 227 226 226 225 223 222 220 219 219 219 218 218 219 220
338 334 333 333 332 331 328 326 324 322 321 319 318 317 316 315 316 314 310 310 313 316 319 322 321 319 316 314 315 317 316 311 306 299 281 266 254 241 230 224 223 222 222 223 222 220 218 218 217 217 218 218
335 332 331 331 331 330 328 326 323 320 320 317 315 315 313 314 314 310 307 307 310 313 315 319 320 320 317 313 311 311 314 314 311 305 292 277 262 251 240 229 222 219 220 221 221 219 218 218 218 217 218 219
334 332 331 331 331 330 327 325 323 322 322 320 317 314 311 311 310 307 306 307 308 311 314 315 317 321 321 317 313 309 309 312 314 312 302 287 269 255 246 237 227 220 219 220 220 219 217 217 217 217 219 220
331 331 330 330 330 330 326 323 325 328 329 328 325 321 315 310 306 301 301 305 306 308 310 311 314 319 323 323 317 311 308 307 313 318 313 300 278 260 248 238 231 225 220 219 221 221 219 218 217 217 219 221
325 327 328 328 328 328 325 321 322 325 326 327 329 328 325 320 311 300 296 299 303 305 304 304 309 316 320 323 321 315 308 305 308 317 318 312 296 271 253 240 232 228 224 220 220 219 219 219 217 218 219 222
322 323 327 328 326 325 322 318 315 317 319 321 323 323 323 322 318 309 302 297 297 300 300 298 302 311 316 318 319 316 310 305 304 311 317 315 308 292 267 247 235 230 228 226 222 219 218 218 218 219 221 222
319 323 326 325 324 322 318 316 315 315 316 317 318 319 317 313 312 312 308 299 293 294 296 296 297 303 309 310 313 313 311 308 305 306 313 315 312 308 289 260 243 235 230 226 225 223 220 218 218 219 220 220
318 322 323 324 324 321 319 318 317 316 317 316 315 315 313 308 304 305 306 302 294 290 291 293 295 298 301 302 305 308 308 310 309 306 309 316 316 311 304 284 258 245 237 228 223 224 223 221 219 219 218 218
318 321 322 324 324 321 321 319 317 315 315 315 313 312 309 304 300 299 302 303 299 294 290 292 294 295 296 295 296 300 304 305 308 306 304 310 316 313 304 295 281 259 245 233 221 219 223 223 222 221 221 220
314 317 317 319 322 321 321 320 317 314 312 312 312 311 308 302 297 295 297 299 301 301 297 295 295 294 294 293 290 292 297 299 302 303 301 302 309 314 304 292 291 275 247 227 217 214 215 220 224 226 227 226
312 313 314 315 317 318 320 321 320 315 312 311 309 311 310 304 300 300 301 298 300 303 302 299 297 296 295 293 288 285 290 292 293 298 300 299 302 308 308 297 291 283 255 227 221 222 218 207 214 226 229 231
313 310 313 312 312 314 317 318 318 316 312 309 308 308 307 304 305 307 304 301 300 299 298 297 296 296 296 295 289 282 283 285 285 291 295 296 298 299 300 296 292 289 269 238 225 217 216 202 207 222 219 224
318 313 313 310 308 310 313 314 314 312 310 307 305 303 301 300 304 308 306 304 302 299 296 294 296 300 300 300 296 285 280 280 281 283 285 290 295 293 287 286 286 286 280 251 233 220 196 147 218 230 210 208
326 322 317 311 308 306 306 306 307 307 307 304 300 297 297 297 298 301 306 307 306 302 296 293 296 302 306 306 304 296 286 280 278 275 278 285 288 286 282 280 278 276 278 269 250 238 230 230 223 202 167 170
328 325 320 313 309 304 298 296 300 304 304 300 296 292 293 295 295 295 298 301 307 309 304 298 299 302 307 309 308 305 296 286 281 276 275 279 281 282 281 273 264 266 272 274 265 252 242 243 250 236 181 179